,,,PA_Meas_PMT16A,,PR_Meas_QMR101_102,,RH_Meas_QMH101,,SR_Meas_QMS101,,TA_Meas_QMH101,,GenWind,,GenWind,
date,time,status,PA,status,PR,status,RH,status,SR,status,TA,status,DirAvg,status,SpdAvg,
2011-12-29, 00:00:04,VALID,1003.14,VALID,0,VALID,86.4123,VALID,0.0815089,VALID,25.746,VALID,348,VALID,0.653906,
2011-12-29, 00:01:04,VALID,1003.12,VALID,0,VALID,86.5573,VALID,0.0815089,VALID,25.7051,VALID,345,VALID,0.499219,
2011-12-29, 00:02:04,VALID,1003.06,VALID,0,VALID,86.8929,VALID,0,VALID,25.7071,VALID,351,VALID,0.599609,
2011-12-29, 00:03:04,VALID,1003.03,VALID,0,VALID,86.8167,VALID,0,VALID,25.6856,VALID,347,VALID,0.387109,
2011-12-29, 00:04:04,VALID,1003.02,VALID,0,VALID,87.0913,VALID,0,VALID,25.6876,VALID,347,VALID,0.336719,
2011-12-29, 00:05:04,VALID,1003.01,VALID,0,VALID,87.1981,VALID,0.0815089,VALID,25.6662,VALID,33,VALID,0.821875,
2011-12-29, 00:06:04,VALID,1002.97,VALID,0,VALID,86.9464,VALID,0.0815089,VALID,25.7265,VALID,20,VALID,0.301562,
2011-12-29, 00:07:04,VALID,1002.97,VALID,0,VALID,86.6336,VALID,0.0815089,VALID,25.8044,VALID,330,VALID,0.542969,
2011-12-29, 00:08:04,VALID,1002.96,VALID,0,VALID,86.3818,VALID,0.0815089,VALID,25.8025,VALID,349,VALID,0.196094,
2011-12-29, 00:09:04,VALID,1002.93,VALID,0,VALID,86.5039,VALID,0,VALID,25.8434,VALID,349,VALID,0.286719,
2011-12-29, 00:10:04,VALID,1002.92,VALID,0,VALID,86.5573,VALID,0.0815089,VALID,25.8025,VALID,349,VALID,0.000390625,
2011-12-29, 00:11:04,VALID,1002.87,VALID,0,VALID,86.4886,VALID,0,VALID,25.8025,VALID,349,VALID,0.053125,
2011-12-29, 00:12:04,VALID,1002.87,VALID,0,VALID,86.3208,VALID,0,VALID,25.8239,VALID,351,VALID,0.745313,
2011-12-29, 00:13:04,VALID,1002.84,VALID,0,VALID,86.1148,VALID,0.0815089,VALID,25.8434,VALID,7,VALID,0.632422,
2011-12-29, 00:14:04,VALID,1002.82,VALID,0,VALID,85.9622,VALID,0.0815089,VALID,25.8823,VALID,8,VALID,0.302344,
2011-12-29, 00:15:04,VALID,1002.81,VALID,0,VALID,85.9393,VALID,0,VALID,25.8629,VALID,8,VALID,0.284766,
2011-12-29, 00:16:04,VALID,1002.79,VALID,0,VALID,86.069,VALID,0,VALID,25.9038,VALID,8,VALID,0.320313,
2011-12-29, 00:17:04,VALID,1002.76,VALID,0,VALID,86.1835,VALID,0,VALID,25.8843,VALID,8,VALID,0,
2011-12-29, 00:18:04,VALID,1002.74,VALID,0,VALID,86.0614,VALID,0,VALID,25.8434,VALID,8,VALID,0.258984,
2011-12-29, 00:19:04,VALID,1002.77,VALID,0,VALID,86.1224,VALID,0,VALID,25.8648,VALID,351,VALID,0.0628906,
2011-12-29, 00:20:04,VALID,1002.76,VALID,0,VALID,86.1606,VALID,0,VALID,25.8648,VALID,355,VALID,0.359375,
2011-12-29, 00:21:04,VALID,1002.74,VALID,0,VALID,85.9927,VALID,0,VALID,25.9038,VALID,355,VALID,0.225781,
2011-12-29, 00:22:04,VALID,1002.73,VALID,0,VALID,85.9088,VALID,0,VALID,25.9232,VALID,8,VALID,0.445313,
2011-12-29, 00:23:04,VALID,1002.75,VALID,0,VALID,85.7028,VALID,0,VALID,25.9817,VALID,8,VALID,0.0855469,
2011-12-29, 00:24:04,VALID,1002.73,VALID,0,VALID,85.3672,VALID,0,VALID,25.9817,VALID,14,VALID,0.239844,
2011-12-29, 00:25:04,VALID,1002.73,VALID,0,VALID,85.3138,VALID,0,VALID,26.0012,VALID,14,VALID,0.405859,
2011-12-29, 00:26:04,VALID,1002.73,VALID,0,VALID,85.207,VALID,0,VALID,26.0206,VALID,22,VALID,0.296094,
2011-12-29, 00:27:04,VALID,1002.76,VALID,0,VALID,85.1002,VALID,0,VALID,26.0616,VALID,22,VALID,0.407813,
2011-12-29, 00:28:04,VALID,1002.76,VALID,0,VALID,85.1536,VALID,0,VALID,26.0401,VALID,22,VALID,0.053125,
2011-12-29, 00:29:04,VALID,1002.79,VALID,0,VALID,85.8402,VALID,0,VALID,25.9602,VALID,22,VALID,0.379297,
2011-12-29, 00:30:04,VALID,1002.78,VALID,0,VALID,86.2216,VALID,0,VALID,25.8998,VALID,22,VALID,0,
2011-12-29, 00:31:04,VALID,1002.76,VALID,0,VALID,86.3437,VALID,0,VALID,25.8823,VALID,22,VALID,0.0378906,
2011-12-29, 00:32:04,VALID,1002.73,VALID,0,VALID,86.6565,VALID,0,VALID,25.8239,VALID,22,VALID,0,
2011-12-29, 00:33:04,VALID,1002.68,VALID,0,VALID,87.0074,VALID,0,VALID,25.785,VALID,22,VALID,0,
2011-12-29, 00:34:04,VALID,1002.67,VALID,0,VALID,86.9464,VALID,0.0815089,VALID,25.746,VALID,22,VALID,0,
2011-12-29, 00:35:04,VALID,1002.63,VALID,0,VALID,86.7709,VALID,0.0815089,VALID,25.7071,VALID,22,VALID,0,
2011-12-29, 00:36:04,VALID,1002.59,VALID,0,VALID,86.8548,VALID,0.0815089,VALID,25.6681,VALID,22,VALID,0,
2011-12-29, 00:37:04,VALID,1002.54,VALID,0,VALID,87.1218,VALID,0,VALID,25.6311,VALID,22,VALID,0.233984,
2011-12-29, 00:38:04,VALID,1002.54,VALID,0,VALID,87.2668,VALID,0,VALID,25.5493,VALID,22,VALID,0,
2011-12-29, 00:39:04,VALID,1002.54,VALID,0,VALID,87.3354,VALID,0.0815089,VALID,25.5318,VALID,22,VALID,0.266797,
2011-12-29, 00:40:04,VALID,1002.54,VALID,0,VALID,87.488,VALID,0.0815089,VALID,25.5513,VALID,22,VALID,0.028125,
2011-12-29, 00:41:04,VALID,1002.52,VALID,0,VALID,87.8084,VALID,0,VALID,25.5123,VALID,22,VALID,0.215625,
2011-12-29, 00:42:04,VALID,1002.52,VALID,0,VALID,87.7703,VALID,0.0815089,VALID,25.5318,VALID,22,VALID,0.203906,
2011-12-29, 00:43:04,VALID,1002.54,VALID,0,VALID,87.5033,VALID,0.0815089,VALID,25.5104,VALID,22,VALID,0,
2011-12-29, 00:44:04,VALID,1002.54,VALID,0,VALID,87.3659,VALID,0,VALID,25.5123,VALID,22,VALID,0.372266,
2011-12-29, 00:45:04,VALID,1002.53,VALID,0,VALID,87.8542,VALID,0,VALID,25.5142,VALID,22,VALID,0,
2011-12-29, 00:46:04,VALID,1002.55,VALID,0,VALID,87.9534,VALID,0,VALID,25.4753,VALID,22,VALID,0,
2011-12-29, 00:47:04,VALID,1002.54,VALID,0,VALID,88.0831,VALID,0,VALID,25.4558,VALID,22,VALID,0,
2011-12-29, 00:48:04,VALID,1002.49,VALID,0,VALID,88.0525,VALID,0,VALID,25.4169,VALID,22,VALID,0,
2011-12-29, 00:49:04,VALID,1002.5,VALID,0,VALID,88.2738,VALID,0,VALID,25.3546,VALID,22,VALID,0,
2011-12-29, 00:50:04,VALID,1002.48,VALID,0,VALID,88.3424,VALID,0,VALID,25.337,VALID,22,VALID,0,
2011-12-29, 00:51:04,VALID,1002.5,VALID,0,VALID,88.6247,VALID,0,VALID,25.339,VALID,22,VALID,0,
2011-12-29, 00:52:04,VALID,1002.48,VALID,0,VALID,88.8307,VALID,0,VALID,25.2592,VALID,22,VALID,0,
2011-12-29, 00:53:04,VALID,1002.46,VALID,0,VALID,89.2426,VALID,0,VALID,25.2221,VALID,22,VALID,0,
2011-12-29, 00:54:04,VALID,1002.41,VALID,0,VALID,89.4791,VALID,0,VALID,25.1832,VALID,22,VALID,0,
2011-12-29, 00:55:04,VALID,1002.42,VALID,0,VALID,89.6699,VALID,0,VALID,25.1248,VALID,22,VALID,0,
2011-12-29, 00:56:04,VALID,1002.4,VALID,0,VALID,89.7614,VALID,0,VALID,25.0644,VALID,22,VALID,0,
2011-12-29, 00:57:04,VALID,1002.36,VALID,0,VALID,90.0132,VALID,0,VALID,25.006,VALID,22,VALID,0,
2011-12-29, 00:58:04,VALID,1002.34,VALID,0,VALID,90.2191,VALID,0,VALID,24.969,VALID,22,VALID,0,
2011-12-29, 00:59:04,VALID,1002.32,VALID,0,VALID,90.509,VALID,0,VALID,24.9106,VALID,22,VALID,0,
2011-12-29, 01:00:04,VALID,1002.3,VALID,0,VALID,90.8523,VALID,0,VALID,24.8503,VALID,22,VALID,0,
2011-12-29, 01:01:04,VALID,1002.29,VALID,0,VALID,91.1193,VALID,0,VALID,24.8113,VALID,22,VALID,0,
2011-12-29, 01:02:04,VALID,1002.29,VALID,0,VALID,91.2033,VALID,0,VALID,24.7937,VALID,22,VALID,0,
2011-12-29, 01:03:04,VALID,1002.27,VALID,0,VALID,91.4932,VALID,0,VALID,24.7761,VALID,22,VALID,0,
2011-12-29, 01:04:04,VALID,1002.27,VALID,0,VALID,91.6686,VALID,0,VALID,24.714,VALID,22,VALID,0,
2011-12-29, 01:05:04,VALID,1002.28,VALID,0,VALID,91.8288,VALID,0,VALID,24.7159,VALID,22,VALID,0,
2011-12-29, 01:06:04,VALID,1002.25,VALID,0,VALID,91.9585,VALID,0,VALID,24.675,VALID,22,VALID,0,
2011-12-29, 01:07:04,VALID,1002.23,VALID,0,VALID,92.0958,VALID,0,VALID,24.6361,VALID,22,VALID,0,
2011-12-29, 01:08:04,VALID,1002.22,VALID,0,VALID,92.2255,VALID,0,VALID,24.6361,VALID,22,VALID,0,
2011-12-29, 01:09:04,VALID,1002.21,VALID,0,VALID,92.2408,VALID,0,VALID,24.5972,VALID,22,VALID,0,
2011-12-29, 01:10:04,VALID,1002.18,VALID,0,VALID,92.3018,VALID,0,VALID,24.599,VALID,22,VALID,0,
2011-12-29, 01:11:04,VALID,1002.18,VALID,0,VALID,92.3552,VALID,0,VALID,24.5796,VALID,22,VALID,0,
2011-12-29, 01:12:04,VALID,1002.17,VALID,0,VALID,92.4086,VALID,0,VALID,24.5388,VALID,22,VALID,0,
2011-12-29, 01:13:04,VALID,1002.16,VALID,0,VALID,92.5231,VALID,0,VALID,24.4998,VALID,22,VALID,0,
2011-12-29, 01:14:04,VALID,1002.15,VALID,0,VALID,92.6451,VALID,0,VALID,24.4804,VALID,22,VALID,0,
2011-12-29, 01:15:04,VALID,1002.15,VALID,0,VALID,92.7672,VALID,0,VALID,24.4822,VALID,22,VALID,0,
2011-12-29, 01:16:04,VALID,1002.17,VALID,0,VALID,92.8282,VALID,0,VALID,24.4433,VALID,22,VALID,0,
2011-12-29, 01:17:04,VALID,1002.15,VALID,0,VALID,92.9426,VALID,0,VALID,24.422,VALID,22,VALID,0,
2011-12-29, 01:18:04,VALID,1002.18,VALID,0,VALID,92.9579,VALID,0,VALID,24.4238,VALID,22,VALID,0,
2011-12-29, 01:19:04,VALID,1002.2,VALID,0,VALID,92.9655,VALID,0,VALID,24.383,VALID,22,VALID,0,
2011-12-29, 01:20:04,VALID,1002.22,VALID,0,VALID,93.08,VALID,0,VALID,24.3636,VALID,22,VALID,0,
2011-12-29, 01:21:04,VALID,1002.19,VALID,0,VALID,93.0723,VALID,0,VALID,24.3849,VALID,22,VALID,0,
2011-12-29, 01:22:04,VALID,1002.21,VALID,0,VALID,93.2249,VALID,0,VALID,24.3636,VALID,22,VALID,0,
2011-12-29, 01:23:04,VALID,1002.2,VALID,0,VALID,93.2554,VALID,0,VALID,24.3654,VALID,22,VALID,0,
2011-12-29, 01:24:04,VALID,1002.2,VALID,0,VALID,93.2783,VALID,0,VALID,24.3459,VALID,22,VALID,0,
2011-12-29, 01:25:04,VALID,1002.23,VALID,0,VALID,93.3165,VALID,0,VALID,24.3265,VALID,22,VALID,0,
2011-12-29, 01:26:04,VALID,1002.23,VALID,0,VALID,93.3928,VALID,0,VALID,24.3459,VALID,22,VALID,0,
2011-12-29, 01:27:04,VALID,1002.25,VALID,0,VALID,93.408,VALID,0,VALID,24.3265,VALID,22,VALID,0,
2011-12-29, 01:28:04,VALID,1002.27,VALID,0,VALID,93.4462,VALID,0,VALID,24.3052,VALID,22,VALID,0,
2011-12-29, 01:29:04,VALID,1002.27,VALID,0,VALID,93.4767,VALID,0,VALID,24.3052,VALID,22,VALID,0,
2011-12-29, 01:30:04,VALID,1002.26,VALID,0,VALID,93.5148,VALID,0,VALID,24.2662,VALID,22,VALID,0,
2011-12-29, 01:31:04,VALID,1002.28,VALID,0,VALID,93.5453,VALID,0,VALID,24.2449,VALID,22,VALID,0,
2011-12-29, 01:32:04,VALID,1002.31,VALID,0,VALID,93.6216,VALID,0,VALID,24.2857,VALID,22,VALID,0,
2011-12-29, 01:33:04,VALID,1002.28,VALID,0,VALID,93.6826,VALID,0,VALID,24.307,VALID,22,VALID,0,
2011-12-29, 01:34:04,VALID,1002.27,VALID,0,VALID,93.6292,VALID,0,VALID,24.2857,VALID,22,VALID,0,
2011-12-29, 01:35:04,VALID,1002.24,VALID,0,VALID,93.6674,VALID,0,VALID,24.3052,VALID,22,VALID,0,
2011-12-29, 01:36:04,VALID,1002.22,VALID,0,VALID,93.7055,VALID,0,VALID,24.3246,VALID,22,VALID,0,
2011-12-29, 01:37:04,VALID,1002.2,VALID,0,VALID,93.7818,VALID,0,VALID,24.3052,VALID,22,VALID,0,
2011-12-29, 01:38:04,VALID,1002.19,VALID,0,VALID,93.7742,VALID,0,VALID,24.3052,VALID,22,VALID,0,
2011-12-29, 01:39:04,VALID,1002.17,VALID,0,VALID,93.8047,VALID,0,VALID,24.3052,VALID,22,VALID,0,
2011-12-29, 01:40:04,VALID,1002.19,VALID,0,VALID,93.8886,VALID,0,VALID,24.3246,VALID,22,VALID,0,
2011-12-29, 01:41:04,VALID,1002.15,VALID,0,VALID,93.9039,VALID,0,VALID,24.3246,VALID,22,VALID,0,
2011-12-29, 01:42:04,VALID,1002.14,VALID,0,VALID,93.8963,VALID,0,VALID,24.3459,VALID,22,VALID,0,
2011-12-29, 01:43:04,VALID,1002.16,VALID,0,VALID,93.8734,VALID,0,VALID,24.3246,VALID,22,VALID,0,
2011-12-29, 01:44:04,VALID,1002.17,VALID,0,VALID,93.9573,VALID,0,VALID,24.3441,VALID,22,VALID,0,
2011-12-29, 01:45:04,VALID,1002.15,VALID,0,VALID,94.0565,VALID,0,VALID,24.383,VALID,22,VALID,0,
2011-12-29, 01:46:04,VALID,1002.14,VALID,0,VALID,94.0183,VALID,0.0815089,VALID,24.383,VALID,22,VALID,0,
2011-12-29, 01:47:04,VALID,1002.11,VALID,0,VALID,94.0336,VALID,0,VALID,24.4025,VALID,22,VALID,0,
2011-12-29, 01:48:04,VALID,1002.1,VALID,0,VALID,94.0488,VALID,0,VALID,24.4238,VALID,22,VALID,0,
2011-12-29, 01:49:04,VALID,1002.09,VALID,0,VALID,94.0641,VALID,0,VALID,24.422,VALID,22,VALID,0,
2011-12-29, 01:50:04,VALID,1002.08,VALID,0,VALID,94.0412,VALID,0,VALID,24.422,VALID,22,VALID,0,
2011-12-29, 01:51:04,VALID,1002.05,VALID,0,VALID,94.0412,VALID,0,VALID,24.4414,VALID,22,VALID,0,
2011-12-29, 01:52:04,VALID,1002.05,VALID,0,VALID,94.0488,VALID,0,VALID,24.4414,VALID,22,VALID,0,
2011-12-29, 01:53:04,VALID,1002.01,VALID,0,VALID,94.0336,VALID,0.0815089,VALID,24.4609,VALID,22,VALID,0,
2011-12-29, 01:54:04,VALID,1001.97,VALID,0,VALID,94.0565,VALID,0.0815089,VALID,24.4804,VALID,22,VALID,0,
2011-12-29, 01:55:04,VALID,1001.98,VALID,0,VALID,94.0488,VALID,0,VALID,24.459,VALID,22,VALID,0,
2011-12-29, 01:56:04,VALID,1001.95,VALID,0,VALID,94.0259,VALID,0,VALID,24.4998,VALID,22,VALID,0,
2011-12-29, 01:57:04,VALID,1001.94,VALID,0,VALID,93.9802,VALID,0,VALID,24.4998,VALID,22,VALID,0,
2011-12-29, 01:58:04,VALID,1001.93,VALID,0,VALID,93.9802,VALID,0,VALID,24.5193,VALID,22,VALID,0,
2011-12-29, 01:59:04,VALID,1001.9,VALID,0,VALID,93.9497,VALID,0.0815089,VALID,24.5388,VALID,22,VALID,0,
2011-12-29, 02:00:04,VALID,1001.88,VALID,0,VALID,93.8886,VALID,0,VALID,24.5582,VALID,22,VALID,0,
2011-12-29, 02:01:04,VALID,1001.84,VALID,0,VALID,93.8047,VALID,0.0815089,VALID,24.5582,VALID,22,VALID,0,
2011-12-29, 02:02:04,VALID,1001.82,VALID,0,VALID,93.7589,VALID,0,VALID,24.5564,VALID,22,VALID,0,
2011-12-29, 02:03:04,VALID,1001.81,VALID,0,VALID,93.7132,VALID,0.0815089,VALID,24.5972,VALID,22,VALID,0,
2011-12-29, 02:04:04,VALID,1001.77,VALID,0,VALID,93.6216,VALID,0,VALID,24.5777,VALID,22,VALID,0,
2011-12-29, 02:05:04,VALID,1001.76,VALID,0,VALID,93.553,VALID,0.0815089,VALID,24.5777,VALID,22,VALID,0,
2011-12-29, 02:06:04,VALID,1001.77,VALID,0,VALID,93.4843,VALID,0.0815089,VALID,24.5777,VALID,22,VALID,0,
2011-12-29, 02:07:04,VALID,1001.73,VALID,0,VALID,93.4996,VALID,0,VALID,24.5388,VALID,22,VALID,0,
2011-12-29, 02:08:04,VALID,1001.7,VALID,0,VALID,93.5911,VALID,0,VALID,24.5388,VALID,22,VALID,0,
2011-12-29, 02:09:05,VALID,1001.71,VALID,0,VALID,93.6216,VALID,0.0815089,VALID,24.5388,VALID,22,VALID,0,
2011-12-29, 02:10:04,VALID,1001.72,VALID,0,VALID,93.6598,VALID,0,VALID,24.5601,VALID,22,VALID,0,
2011-12-29, 02:11:05,VALID,1001.71,VALID,0,VALID,93.7284,VALID,0,VALID,24.5193,VALID,22,VALID,0,
2011-12-29, 02:12:05,VALID,1001.72,VALID,0,VALID,93.7589,VALID,0,VALID,24.498,VALID,22,VALID,0,
2011-12-29, 02:13:05,VALID,1001.73,VALID,0,VALID,93.7513,VALID,0.0815089,VALID,24.5406,VALID,22,VALID,0,
2011-12-29, 02:14:05,VALID,1001.72,VALID,0,VALID,93.8047,VALID,0,VALID,24.5193,VALID,22,VALID,0,
2011-12-29, 02:15:05,VALID,1001.71,VALID,0,VALID,93.7895,VALID,0.0815089,VALID,24.5193,VALID,22,VALID,0,
2011-12-29, 02:16:05,VALID,1001.72,VALID,0,VALID,93.7589,VALID,0.0815089,VALID,24.5193,VALID,22,VALID,0,
2011-12-29, 02:17:05,VALID,1001.71,VALID,0,VALID,93.7971,VALID,0.0815089,VALID,24.4785,VALID,22,VALID,0,
2011-12-29, 02:18:05,VALID,1001.73,VALID,0,VALID,93.8123,VALID,0.0815089,VALID,24.4998,VALID,22,VALID,0,
2011-12-29, 02:19:05,VALID,1001.76,VALID,0,VALID,93.8276,VALID,0,VALID,24.4804,VALID,22,VALID,0,
2011-12-29, 02:20:05,VALID,1001.72,VALID,0,VALID,93.8581,VALID,0,VALID,24.459,VALID,22,VALID,0,
2011-12-29, 02:21:05,VALID,1001.72,VALID,0,VALID,93.8505,VALID,0.0815089,VALID,24.4804,VALID,22,VALID,0,
2011-12-29, 02:22:05,VALID,1001.68,VALID,0,VALID,93.8657,VALID,0,VALID,24.4804,VALID,22,VALID,0,
2011-12-29, 02:23:05,VALID,1001.67,VALID,0,VALID,93.8886,VALID,0.0815089,VALID,24.459,VALID,22,VALID,0,
2011-12-29, 02:24:05,VALID,1001.61,VALID,0,VALID,93.8429,VALID,0,VALID,24.459,VALID,22,VALID,0,
2011-12-29, 02:25:05,VALID,1001.59,VALID,0,VALID,93.82,VALID,0.0815089,VALID,24.4609,VALID,22,VALID,0,
2011-12-29, 02:26:05,VALID,1001.58,VALID,0,VALID,93.8657,VALID,0.0815089,VALID,24.4201,VALID,22,VALID,0,
2011-12-29, 02:27:05,VALID,1001.52,VALID,0,VALID,93.9268,VALID,0.0815089,VALID,24.4414,VALID,22,VALID,0,
2011-12-29, 02:28:05,VALID,1001.52,VALID,0,VALID,93.9573,VALID,0.0815089,VALID,24.4201,VALID,22,VALID,0,
2011-12-29, 02:29:05,VALID,1001.51,VALID,0,VALID,93.942,VALID,0.0815089,VALID,24.422,VALID,22,VALID,0,
2011-12-29, 02:30:05,VALID,1001.51,VALID,0,VALID,93.9191,VALID,0.0815089,VALID,24.422,VALID,22,VALID,0,
2011-12-29, 02:31:05,VALID,1001.52,VALID,0,VALID,93.8963,VALID,0,VALID,24.4025,VALID,22,VALID,0,
2011-12-29, 02:32:05,VALID,1001.49,VALID,0,VALID,93.9344,VALID,0,VALID,24.3812,VALID,22,VALID,0,
2011-12-29, 02:33:05,VALID,1001.48,VALID,0,VALID,93.9649,VALID,0.0815089,VALID,24.422,VALID,22,VALID,0,
2011-12-29, 02:34:05,VALID,1001.52,VALID,0,VALID,93.9573,VALID,0,VALID,24.4025,VALID,22,VALID,0,
2011-12-29, 02:35:05,VALID,1001.54,VALID,0,VALID,93.9725,VALID,0.0815089,VALID,24.4025,VALID,22,VALID,0,
2011-12-29, 02:36:05,VALID,1001.53,VALID,0,VALID,93.9954,VALID,0,VALID,24.4025,VALID,22,VALID,0,
2011-12-29, 02:37:05,VALID,1001.54,VALID,0,VALID,94.0946,VALID,0.0815089,VALID,24.422,VALID,22,VALID,0,
2011-12-29, 02:38:05,VALID,1001.56,VALID,0,VALID,94.1862,VALID,0.0815089,VALID,24.4201,VALID,22,VALID,0,
2011-12-29, 02:39:05,VALID,1001.57,VALID,0,VALID,94.1251,VALID,0,VALID,24.4414,VALID,22,VALID,0,
2011-12-29, 02:40:05,VALID,1001.6,VALID,0,VALID,94.1251,VALID,0,VALID,24.4414,VALID,22,VALID,0,
2011-12-29, 02:41:05,VALID,1001.6,VALID,0,VALID,94.1175,VALID,0.0815089,VALID,24.4414,VALID,22,VALID,0,
2011-12-29, 02:42:05,VALID,1001.63,VALID,0,VALID,94.148,VALID,0.0815089,VALID,24.4414,VALID,22,VALID,0,
2011-12-29, 02:43:05,VALID,1001.61,VALID,0,VALID,94.0946,VALID,0,VALID,24.4414,VALID,22,VALID,0,
2011-12-29, 02:44:05,VALID,1001.6,VALID,0,VALID,94.1099,VALID,0,VALID,24.4414,VALID,22,VALID,0,
2011-12-29, 02:45:05,VALID,1001.58,VALID,0,VALID,94.1404,VALID,0,VALID,24.4822,VALID,22,VALID,0,
2011-12-29, 02:46:05,VALID,1001.59,VALID,0,VALID,94.1862,VALID,0,VALID,24.4804,VALID,22,VALID,0,
2011-12-29, 02:47:05,VALID,1001.58,VALID,0,VALID,94.2167,VALID,0.0815089,VALID,24.5017,VALID,22,VALID,0,
2011-12-29, 02:48:05,VALID,1001.58,VALID,0,VALID,94.2243,VALID,0,VALID,24.4804,VALID,22,VALID,0,
2011-12-29, 02:49:05,VALID,1001.62,VALID,0,VALID,94.148,VALID,0,VALID,24.5212,VALID,22,VALID,0,
2011-12-29, 02:50:05,VALID,1001.62,VALID,0,VALID,94.148,VALID,0,VALID,24.4804,VALID,22,VALID,0,
2011-12-29, 02:51:05,VALID,1001.58,VALID,0,VALID,94.1328,VALID,0,VALID,24.4998,VALID,22,VALID,0,
2011-12-29, 02:52:05,VALID,1001.6,VALID,0,VALID,94.148,VALID,0,VALID,24.5193,VALID,22,VALID,0,
2011-12-29, 02:53:05,VALID,1001.59,VALID,0,VALID,94.0794,VALID,0,VALID,24.4998,VALID,22,VALID,0,
2011-12-29, 02:54:05,VALID,1001.56,VALID,0,VALID,93.9878,VALID,0,VALID,24.4998,VALID,22,VALID,0,
2011-12-29, 02:55:05,VALID,1001.56,VALID,0,VALID,93.942,VALID,0,VALID,24.4804,VALID,22,VALID,0,
2011-12-29, 02:56:05,VALID,1001.55,VALID,0,VALID,93.9497,VALID,0,VALID,24.4998,VALID,22,VALID,0,
2011-12-29, 02:57:05,VALID,1001.55,VALID,0,VALID,94.0107,VALID,0,VALID,24.498,VALID,22,VALID,0,
2011-12-29, 02:58:05,VALID,1001.53,VALID,0,VALID,93.9497,VALID,0,VALID,24.5193,VALID,22,VALID,0,
2011-12-29, 02:59:05,VALID,1001.54,VALID,0,VALID,93.9268,VALID,0.0815089,VALID,24.5388,VALID,22,VALID,0,
2011-12-29, 03:00:05,VALID,1001.53,VALID,0,VALID,93.8886,VALID,0,VALID,24.5601,VALID,22,VALID,0,
2011-12-29, 03:01:05,VALID,1001.54,VALID,0,VALID,93.8581,VALID,0,VALID,24.5388,VALID,22,VALID,0,
2011-12-29, 03:02:05,VALID,1001.53,VALID,0,VALID,93.8123,VALID,0,VALID,24.5796,VALID,22,VALID,0,
2011-12-29, 03:03:05,VALID,1001.49,VALID,0,VALID,93.7742,VALID,0,VALID,24.5796,VALID,22,VALID,0,
2011-12-29, 03:04:05,VALID,1001.5,VALID,0,VALID,93.7971,VALID,0,VALID,24.5796,VALID,22,VALID,0,
2011-12-29, 03:05:05,VALID,1001.48,VALID,0,VALID,93.8352,VALID,0,VALID,24.6185,VALID,22,VALID,0,
2011-12-29, 03:06:05,VALID,1001.45,VALID,0,VALID,93.7895,VALID,0,VALID,24.638,VALID,22,VALID,0,
2011-12-29, 03:07:05,VALID,1001.47,VALID,0,VALID,93.7055,VALID,0,VALID,24.638,VALID,22,VALID,0,
2011-12-29, 03:08:05,VALID,1001.47,VALID,0,VALID,93.6903,VALID,0,VALID,24.638,VALID,22,VALID,0,
2011-12-29, 03:09:05,VALID,1001.47,VALID,0,VALID,93.6369,VALID,0,VALID,24.6185,VALID,22,VALID,0,
2011-12-29, 03:10:05,VALID,1001.49,VALID,0,VALID,93.6292,VALID,0,VALID,24.6185,VALID,22,VALID,0,
2011-12-29, 03:11:05,VALID,1001.51,VALID,0,VALID,93.6216,VALID,0,VALID,24.599,VALID,22,VALID,0,
2011-12-29, 03:12:05,VALID,1001.51,VALID,0,VALID,93.6064,VALID,0,VALID,24.599,VALID,22,VALID,0,
2011-12-29, 03:13:05,VALID,1001.52,VALID,0,VALID,93.6369,VALID,0,VALID,24.599,VALID,22,VALID,0,
2011-12-29, 03:14:05,VALID,1001.54,VALID,0,VALID,93.6445,VALID,0,VALID,24.6185,VALID,22,VALID,0,
2011-12-29, 03:15:05,VALID,1001.52,VALID,0,VALID,93.6521,VALID,0.0815089,VALID,24.6166,VALID,22,VALID,0,
2011-12-29, 03:16:05,VALID,1001.52,VALID,0,VALID,93.6369,VALID,0,VALID,24.6166,VALID,22,VALID,0,
2011-12-29, 03:17:05,VALID,1001.51,VALID,0,VALID,93.5835,VALID,0,VALID,24.5972,VALID,22,VALID,0,
2011-12-29, 03:18:05,VALID,1001.52,VALID,0,VALID,93.5911,VALID,0,VALID,24.638,VALID,22,VALID,0,
2011-12-29, 03:19:05,VALID,1001.51,VALID,0,VALID,93.6369,VALID,0,VALID,24.5972,VALID,22,VALID,0,
2011-12-29, 03:20:05,VALID,1001.53,VALID,0,VALID,93.6292,VALID,0,VALID,24.638,VALID,22,VALID,0,
2011-12-29, 03:21:05,VALID,1001.51,VALID,0,VALID,93.6674,VALID,0,VALID,24.5758,VALID,22,VALID,0,
2011-12-29, 03:22:05,VALID,1001.51,VALID,0,VALID,93.675,VALID,0,VALID,24.638,VALID,22,VALID,0,
2011-12-29, 03:23:05,VALID,1001.54,VALID,0,VALID,93.6674,VALID,0,VALID,24.638,VALID,22,VALID,0,
2011-12-29, 03:24:05,VALID,1001.52,VALID,0,VALID,93.6598,VALID,0,VALID,24.5777,VALID,22,VALID,0,
2011-12-29, 03:25:05,VALID,1001.51,VALID,0,VALID,93.6826,VALID,0,VALID,24.5777,VALID,22,VALID,0,
2011-12-29, 03:26:05,VALID,1001.56,VALID,0,VALID,93.6826,VALID,0,VALID,24.5972,VALID,22,VALID,0,
2011-12-29, 03:27:05,VALID,1001.56,VALID,0,VALID,93.6598,VALID,0.0815089,VALID,24.6185,VALID,22,VALID,0,
2011-12-29, 03:28:05,VALID,1001.58,VALID,0,VALID,93.6292,VALID,0.0815089,VALID,24.5777,VALID,22,VALID,0,
2011-12-29, 03:29:05,VALID,1001.59,VALID,0,VALID,93.6292,VALID,0,VALID,24.5972,VALID,22,VALID,0,
2011-12-29, 03:30:05,VALID,1001.63,VALID,0,VALID,93.675,VALID,0,VALID,24.5972,VALID,22,VALID,0,
2011-12-29, 03:31:05,VALID,1001.64,VALID,0,VALID,93.6521,VALID,0,VALID,24.5777,VALID,22,VALID,0.456641,
2011-12-29, 03:32:05,VALID,1001.65,VALID,0,VALID,93.6598,VALID,0,VALID,24.6185,VALID,22,VALID,0.110937,
2011-12-29, 03:33:05,VALID,1001.65,VALID,0,VALID,93.6292,VALID,0,VALID,24.5777,VALID,22,VALID,0,
2011-12-29, 03:34:05,VALID,1001.65,VALID,0,VALID,93.6598,VALID,0,VALID,24.5972,VALID,22,VALID,0,
2011-12-29, 03:35:05,VALID,1001.64,VALID,0,VALID,93.6979,VALID,0,VALID,24.5972,VALID,22,VALID,0,
2011-12-29, 03:36:05,VALID,1001.66,VALID,0,VALID,93.6064,VALID,0,VALID,24.5972,VALID,22,VALID,0,
2011-12-29, 03:37:05,VALID,1001.67,VALID,0,VALID,93.5911,VALID,0,VALID,24.5972,VALID,22,VALID,0,
2011-12-29, 03:38:05,VALID,1001.65,VALID,0,VALID,93.6674,VALID,0,VALID,24.5972,VALID,22,VALID,0,
2011-12-29, 03:39:05,VALID,1001.66,VALID,0,VALID,93.6216,VALID,0,VALID,24.638,VALID,22,VALID,0,
2011-12-29, 03:40:05,VALID,1001.68,VALID,0,VALID,93.6216,VALID,0,VALID,24.638,VALID,22,VALID,0,
2011-12-29, 03:41:05,VALID,1001.73,VALID,0,VALID,93.6216,VALID,0,VALID,24.5972,VALID,22,VALID,0,
2011-12-29, 03:42:05,VALID,1001.75,VALID,0,VALID,93.6216,VALID,0,VALID,24.5972,VALID,22,VALID,0,
2011-12-29, 03:43:05,VALID,1001.75,VALID,0,VALID,93.6826,VALID,0,VALID,24.6166,VALID,22,VALID,0,
2011-12-29, 03:44:05,VALID,1001.75,VALID,0,VALID,93.6903,VALID,0,VALID,24.6166,VALID,22,VALID,0,
2011-12-29, 03:45:05,VALID,1001.73,VALID,0,VALID,93.6445,VALID,0,VALID,24.5972,VALID,22,VALID,0,
2011-12-29, 03:46:05,VALID,1001.76,VALID,0,VALID,93.6826,VALID,0,VALID,24.6185,VALID,22,VALID,0,
2011-12-29, 03:47:05,VALID,1001.75,VALID,0,VALID,93.6521,VALID,0,VALID,24.6166,VALID,22,VALID,0,
2011-12-29, 03:48:05,VALID,1001.72,VALID,0,VALID,93.7055,VALID,0,VALID,24.638,VALID,22,VALID,0.36875,
2011-12-29, 03:49:05,VALID,1001.73,VALID,0,VALID,93.6445,VALID,0,VALID,24.6166,VALID,22,VALID,0.230469,
2011-12-29, 03:50:05,VALID,1001.75,VALID,0,VALID,93.6903,VALID,0,VALID,24.5972,VALID,22,VALID,0.312891,
2011-12-29, 03:51:05,VALID,1001.73,VALID,0,VALID,93.7208,VALID,0,VALID,24.5972,VALID,22,VALID,0.408984,
2011-12-29, 03:52:05,VALID,1001.73,VALID,0,VALID,93.7208,VALID,0,VALID,24.5777,VALID,22,VALID,0.446094,
2011-12-29, 03:53:05,VALID,1001.72,VALID,0,VALID,93.7361,VALID,0,VALID,24.5582,VALID,22,VALID,0.148438,
2011-12-29, 03:54:05,VALID,1001.71,VALID,0,VALID,93.7666,VALID,0,VALID,24.5582,VALID,22,VALID,0.164453,
2011-12-29, 03:55:05,VALID,1001.74,VALID,0,VALID,93.7742,VALID,0,VALID,24.5601,VALID,22,VALID,0.280078,